Temperature
21 22 24 24 25 25 23 22 21 21 21 21 21 21 21 21 21 21 21 21 21 21 21 21 21 21 21 20 20 20 20 20 20 19 19 19 19 19 19 18 18 18 18 18
22 23 23 24 24 24 24 23 22 22 21 21 21 21 21 21 20 20 20 20 20 20 20 21 21 21 20 20 20 20 20 20 19 19 19 19 18 18 18 18 18 18 18 18
19 21 22 22 23 23 22 22 22 21 20 20 19 19 20 20 20 19 19 20 20 20 20 20 20 20 20 20 20 20 20 19 19 19 19 19 18 18 18 18 18 17 17 17
18 20 21 21 22 23 22 21 20 20 19 19 19 19 20 20 20 20 20 20 20 20 20 20 20 20 20 20 20 19 19 19 19 18 18 18 18 18 18 17 17 17 17 17
16 18 20 21 22 22 21 20 20 19 19 19 19 19 19 20 20 20 20 20 19 19 19 19 19 19 19 19 19 19 18 18 18 18 18 18 17 17 17 17 17 17 17 16
17 19 19 20 21 22 21 18 19 19 18 18 19 17 17 19 19 19 19 19 19 19 19 19 19 19 19 19 18 18 18 18 18 18 18 17 17 17 17 17 17 16 16 16
17 18 18 19 21 22 19 18 19 19 19 19 18 18 19 19 19 19 19 19 19 19 18 18 18 18 18 18 18 17 17 17 17 17 17 17 17 17 17 16 16 16 15 15
16 17 18 19 20 19 18 19 19 19 19 19 19 18 18 18 18 18 18 18 18 18 18 17 17 17 17 17 17 17 17 17 17 16 16 16 16 16 16 16 15 15 15 15
15 16 17 19 19 19 19 19 19 19 19 19 18 18 18 18 18 18 18 18 17 17 17 17 17 17 16 16 16 16 16 16 16 16 16 16 16 15 15 15 15 15 14 14
15 16 17 18 19 19 19 19 19 19 18 18 18 18 17 17 17 17 17 17 17 17 16 16 16 16 16 16 16 16 16 16 16 15 15 15 15 15 15 15 14 14 14 14
14 15 16 17 18 18 19 19 18 18 18 18 17 17 17 17 17 17 17 16 16 16 16 16 16 16 16 16 15 15 15 15 15 15 15 15 14 14 14 14 14 14 14 14
14 15 15 16 17 18 18 18 18 18 18 17 17 17 17 17 17 16 16 16 16 16 15 15 15 15 15 15 15 15 14 14 15 14 14 14 14 14 14 14 14 14 13 13
16 17 17 17 17 17 17 17 17 17 17 17 17 16 16 16 16 16 16 16 15 15 15 15 15 15 15 14 14 14 14 14 14 14 14 14 13 14 13 13 13 13 13 13
17 16 16 16 16 17 17 17 17 16 16 16 16 16 16 16 15 15 15 15 15 15 15 14 14 14 14 14 14 14 14 14 13 13 13 13 13 13 13 13 13 12 12 12
16 16 16 16 16 16 16 16 16 16 15 15 15 15 15 15 15 15 15 15 15 14 14 14 14 14 14 14 14 14 13 13 13 13 13 13 13 12 12 12 12 12 12 12
16 16 16 16 15 16 16 15 15 15 15 15 15 15 14 15 14 14 14 14 14 14 14 14 14 14 14 13 13 13 13 13 13 13 12 12 12 12 12 12 12 12 12 12
15 15 15 15 15 15 15 15 15 15 14 14 14 14 14 14 14 14 14 14 14 14 14 13 13 13 13 13 13 13 13 13 12 12 12 12 12 12 12 12 12 12 12 11
15 15 15 15 15 14 14 14 14 14 14 14 14 13 13 13 13 13 13 13 13 13 13 13 13 13 13 13 13 13 12 12 12 12 12 12 12 12 12 12 12 11 11 11
15 15 15 15 14 14 14 14 14 14 13 13 13 13 13 13 13 13 13 13 13 13 13 13 13 13 13 12 12 12 12 12 12 12 12 12 12 12 11 11 11 11 11 11
14 14 14 14 14 14 14 14 13 13 13 13 13 13 13 13 13 13 12 12 12 13 13 13 12 12 12 12 12 12 12 12 12 12 12 12 12 11 11 11 11 11 11 11
14 14 14 13 13 13 13 13 13 13 13 13 12 12 12 12 12 12 12 12 12 12 12 12 12 12 12 12 12 12 12 12 12 12 12 12 11 11 11 11 11 11 11 11
13 13 13 13 13 13 13 13 12 12 12 12 12 12 12 12 12 12 12 12 12 12 12 12 12 12 12 11 11 12 11 11 11 11 11 11 11 11 11 11 11 11 11 11
13 13 13 13 12 12 12 12 12 12 12 12 12 12 12 12 12 12 12 12 12 12 12 12 12 12 11 11 11 11 11 11 11 11 11 11 11 11 11 11 11 11 11 11
12 12 12 12 12 12 12 12 12 12 12 12 12 12 12 12 12 12 12 12 12 12 11 11 12 12 11 11 11 11 11 11 11 11 11 11 11 11 11 11 11 11 11 10
12 12 12 12 12 12 12 12 12 12 12 12 12 12 12 12 12 12 12 11 11 11 11 11 11 11 11 11 11 11 11 11 11 11 11 11 11 11 11 10 10 10 10 10
12 12 12 12 12 12 12 12 12 12 12 12 12 12 12 12 12 11 11 11 11 11 11 11 11 11 11 11 11 11 11 11 11 10 10 10 10 10 10 10 10 10 10 9
12 12 12 12 12 12 12 12 12 11 11 11 11 11 11 11 11 11 11 11 11 11 11 11 11 11 11 11 11 11 11 10 10 10 10 10 10 10 10 10 10 9 9 9
Wind_Speed
5 5 2 4 6 5 2 5 6 6 5 6 5 5 5 5 4 5 4 3 2 2 2 2 3 3 4 4 5 6 7 8 9 9 8 7 7 7 7 7 8 6 6 5
3 4 4 5 6 4 3 1 1 2 3 4 2 2 4 4 5 5 4 3 3 2 3 3 3 3 4 4 5 6 8 8 7 6 7 8 7 7 7 7 6 5 6 5
3 5 5 4 4 1 2 2 2 3 4 1 3 2 3 3 5 5 5 4 4 3 3 3 3 3 4 5 4 5 6 7 6 7 7 7 8 7 7 7 6 6 6 5
1 3 3 6 3 3 3 3 2 2 2 3 3 1 1 3 5 4 3 3 2 1 1 1 2 2 3 4 4 5 5 6 6 6 6 5 5 6 6 6 6 6 6 5
3 2 5 6 3 0 2 3 3 2 2 3 2 4 4 2 1 3 4 3 3 2 2 1 1 2 2 3 3 3 3 4 5 5 6 5 4 4 4 4 5 5 5 6
3 3 5 6 6 2 5 1 4 1 2 0 2 1 3 3 1 1 1 2 2 2 2 1 1 1 3 2 3 3 3 3 3 4 5 5 5 4 3 4 4 5 4 5
3 4 5 4 5 2 2 5 4 0 1 2 2 4 4 1 0 1 1 1 2 2 2 1 1 2 2 2 2 3 2 3 2 2 4 4 3 3 3 3 3 4 4 3
3 3 5 5 3 3 4 3 1 0 1 2 1 1 2 2 1 1 1 2 2 2 1 1 1 2 2 2 2 2 3 3 3 2 2 3 3 3 3 4 4 3 3 2
5 6 5 2 2 3 3 1 1 1 0 3 2 1 2 2 2 1 1 2 2 2 2 2 1 1 2 2 1 2 3 3 3 2 2 3 4 4 3 3 4 4 4 3
1 3 3 2 1 1 2 2 1 1 2 2 1 1 1 2 2 1 1 1 1 3 2 1 1 1 1 2 2 3 3 2 2 2 2 2 2 3 3 4 4 4 4 3
1 3 3 3 2 0 1 3 3 3 2 2 2 0 2 2 2 2 1 1 2 3 3 1 1 1 1 1 3 3 2 2 2 2 2 2 2 1 2 3 5 6 5 4
4 5 3 5 4 1 2 1 1 1 2 1 2 2 2 2 1 2 1 1 2 2 2 1 1 1 1 2 3 4 2 2 2 2 2 3 3 2 3 2 2 4 5 5
4 4 3 3 1 1 0 1 1 1 2 1 1 1 1 1 1 2 2 1 1 1 1 1 1 1 1 1 2 3 3 2 2 2 3 3 3 3 2 2 4 2 2 4
2 1 2 2 3 2 0 1 2 2 2 2 1 2 2 2 2 2 2 3 2 2 1 1 2 1 1 2 3 3 2 2 3 2 2 3 3 3 3 3 2 1 1 1
3 1 2 2 2 3 1 2 3 2 2 2 2 2 2 2 1 1 2 3 3 2 2 2 1 1 1 2 3 3 2 1 2 2 2 3 3 3 3 3 3 1 0 1
2 2 2 2 2 2 2 2 3 2 1 1 1 1 1 2 2 2 2 3 3 2 2 2 2 2 2 3 3 2 1 2 3 3 3 3 3 3 3 3 3 3 3 2
1 1 2 2 2 2 1 1 2 2 1 1 0 0 1 2 1 1 1 2 3 3 2 3 3 2 2 3 3 2 1 1 3 2 3 3 3 4 4 4 4 3 3 3
3 3 2 2 1 1 1 0 1 1 1 1 1 1 1 1 2 2 2 1 2 1 1 2 2 2 2 3 2 2 2 2 2 2 2 3 3 3 4 4 4 4 2 2
1 2 2 1 1 1 1 1 1 1 1 1 1 1 1 1 1 2 2 2 1 1 3 2 3 3 3 3 3 2 2 2 2 2 3 3 3 3 3 4 4 4 3 3
1 1 0 1 1 2 1 1 1 1 1 1 1 1 0 1 1 1 1 1 2 3 3 3 3 3 3 3 3 2 2 2 3 3 3 4 4 4 4 4 4 4 4 4
0 1 2 3 2 2 3 2 2 1 0 1 1 1 1 1 1 1 1 2 4 3 2 2 2 2 2 2 3 2 2 2 2 3 4 4 3 3 4 4 4 4 4 4
1 2 3 3 2 2 1 2 2 1 0 0 0 1 1 0 1 1 2 3 3 3 2 1 2 3 3 3 1 2 2 2 2 2 3 3 4 3 3 4 3 4 3 3
2 2 2 2 1 1 0 0 1 1 1 1 1 1 2 2 2 2 3 3 2 3 2 2 3 4 4 2 1 1 2 2 2 2 3 3 3 3 3 3 3 3 3 3
1 1 0 1 1 1 1 1 1 1 1 2 2 3 2 2 2 3 4 4 4 4 3 3 4 5 4 2 1 1 1 1 2 1 1 2 3 3 3 3 3 2 3 3
0 0 0 1 0 1 2 2 1 1 1 1 2 2 2 2 2 3 2 3 3 3 2 3 4 4 3 2 2 1 1 2 2 1 1 2 2 2 2 2 3 3 3 2
1 1 1 2 2 2 2 1 1 1 1 1 2 2 1 1 1 1 1 2 2 2 2 2 3 3 3 2 2 2 1 1 1 1 2 2 2 3 2 2 3 2 2 2
1 1 0 1 1 1 1 1 1 2 2 2 2 2 1 1 0 1 1 2 2 1 1 1 2 2 2 2 1 1 1 1 1 2 2 2 2 2 2 3 2 2 2 2
Wind_Direction
223 246 268 289 294 293 263 210 209 231 224 234 206 176 161 137 119 110 105 100 103 132 150 151 172 184 176 179 182 183 187 197 206 208 202 198 201 202 198 198 203 198 194 200
324 322 341 314 303 306 301 287 203 181 262 250 192 121 120 133 135 128 131 138 132 146 152 156 176 195 191 193 195 187 190 197 199 196 192 193 199 200 196 201 202 193 195 199
281 311 3 309 281 316 351 346 155 217 239 168 65 92 143 159 152 150 145 140 153 171 173 181 189 187 198 206 199 188 191 193 192 191 190 197 201 198 201 202 198 195 198 198
173 33 239 250 260 122 82 27 53 95 87 106 113 137 169 159 155 155 155 157 170 171 182 194 188 182 192 185 181 191 195 198 200 193 191 196 198 204 210 202 193 191 193 194
135 196 261 282 304 211 129 337 5 80 60 37 92 55 3 340 164 173 176 173 182 184 181 180 181 176 154 159 161 176 191 196 192 185 184 183 190 205 211 195 189 187 190 193
148 178 232 259 289 265 108 319 313 79 116 64 50 45 283 300 9 87 116 141 155 158 125 132 197 145 135 156 160 177 185 183 176 176 180 183 190 195 203 194 192 184 190 197
180 214 248 269 293 39 117 238 276 242 154 151 183 218 227 227 48 54 81 118 137 121 116 153 116 111 124 149 187 193 160 143 144 165 173 175 182 182 184 184 169 163 172 195
166 200 248 302 43 131 211 232 245 258 153 144 177 182 137 119 127 110 69 73 97 96 70 38 91 113 123 179 208 162 145 147 157 157 163 165 170 171 165 168 162 165 165 189
193 214 235 263 151 181 161 121 6 106 190 151 141 174 151 145 153 168 117 99 96 102 79 46 53 134 157 221 191 144 134 145 155 142 144 173 175 180 176 178 175 175 175 187
310 270 274 289 72 52 99 99 40 58 67 92 117 164 165 168 178 175 117 115 110 111 104 70 39 65 167 182 164 143 143 148 142 141 139 147 160 174 179 181 176 179 179 184
271 281 327 334 336 202 76 63 50 33 41 82 92 147 197 189 187 182 177 174 139 140 141 156 163 149 157 135 127 125 132 138 137 145 150 132 117 127 173 184 184 184 188 182
235 242 225 267 278 232 97 63 37 36 5 36 156 195 202 194 198 175 164 130 118 133 160 173 133 123 139 141 137 139 136 143 146 152 150 144 135 95 57 99 140 171 181 180
228 257 246 257 292 337 144 211 148 124 141 133 162 160 147 176 186 156 140 152 168 172 177 160 126 115 133 150 137 142 154 169 166 162 164 166 161 147 125 43 49 67 161 176
268 333 336 315 318 318 18 124 110 109 101 108 120 115 120 140 157 154 177 192 177 153 149 154 140 177 198 140 124 131 148 165 168 175 179 178 177 172 166 164 164 335 338 170
296 259 220 266 335 342 22 87 85 78 83 75 95 104 104 120 157 195 196 172 150 145 169 159 151 243 214 136 126 132 148 177 172 175 181 183 179 172 169 170 172 180 121 52
301 14 49 44 18 5 45 85 97 89 93 101 110 136 164 163 171 180 175 154 147 173 196 179 211 233 190 150 141 138 148 165 164 165 171 171 171 171 175 174 176 180 184 180
62 20 26 359 337 326 328 150 143 149 125 112 231 230 136 139 146 170 192 186 176 183 192 193 218 219 178 161 159 165 161 171 166 155 164 173 177 178 178 177 178 179 189 187
191 198 191 192 235 304 294 151 121 122 138 199 174 95 107 154 184 199 191 149 118 112 213 206 196 180 166 160 160 169 169 179 177 169 169 172 177 179 175 175 181 181 180 182
252 237 236 232 197 169 207 219 179 160 175 171 175 186 179 187 195 189 162 136 136 227 258 238 185 182 188 190 171 165 171 180 179 179 178 176 175 180 183 183 185 187 186 183
307 255 126 70 89 120 130 142 124 120 149 160 151 156 188 240 200 168 149 196 238 237 231 217 202 206 200 196 183 178 191 196 188 185 188 183 184 193 195 192 190 194 198 196
93 119 113 105 92 94 106 104 95 64 339 142 151 178 212 253 217 161 164 265 283 265 233 201 193 205 204 198 182 179 192 202 202 199 196 193 194 203 202 197 194 197 200 200
61 106 121 122 116 109 118 123 130 142 114 27 106 117 93 347 272 249 238 237 251 240 214 204 200 198 190 177 165 176 191 202 206 197 194 193 195 200 199 195 189 187 192 192
46 86 106 110 140 166 115 115 176 197 228 235 223 219 225 236 220 215 265 268 245 223 210 211 197 191 186 168 182 201 206 199 192 194 200 195 191 189 183 179 177 170 167 170
39 56 64 70 81 76 356 304 292 273 262 248 232 227 225 246 269 248 231 237 234 228 229 220 199 193 191 187 193 201 206 205 190 188 192 180 171 167 163 162 164 158 151 151
322 332 38 66 229 243 246 260 279 300 311 304 286 266 241 211 221 251 250 243 237 229 235 216 195 185 177 171 179 190 195 193 181 160 152 161 161 154 151 148 150 152 154 158
307 257 230 216 221 234 236 218 216 241 231 271 300 291 270 250 235 242 263 263 254 236 219 208 202 194 192 190 194 191 182 183 172 157 156 163 159 149 147 145 144 151 160 170
294 263 281 311 306 280 231 195 202 222 217 214 250 277 268 257 263 272 276 274 260 240 218 197 190 187 187 178 169 174 172 177 187 181 174 174 167 155 159 162 163 162 164 166
Height
1494 1490 1488 1488 1486 1484 1490 1496 1503 1499 1495 1488 1483 1481 1481 1481 1483 1484 1484 1485 1486 1487 1488 1490 1492 1494 1495 1496 1497 1499 1500 1501 1503 1505 1506 1508 1510 1512 1514 1516 1517 1519 1520 1521
1493 1486 1486 1488 1484 1482 1483 1484 1488 1489 1490 1482 1480 1480 1481 1481 1482 1483 1485 1485 1486 1487 1487 1488 1489 1491 1492 1493 1494 1495 1496 1497 1499 1501 1502 1504 1505 1507 1510 1511 1513 1514 1515 1517
1504 1493 1491 1498 1487 1484 1486 1483 1485 1491 1488 1482 1482 1482 1482 1481 1481 1482 1483 1483 1484 1484 1485 1485 1486 1487 1489 1490 1491 1492 1492 1494 1495 1496 1497 1499 1501 1502 1504 1506 1508 1509 1511 1512
1506 1501 1510 1497 1479 1479 1483 1484 1482 1483 1482 1481 1482 1482 1481 1481 1481 1481 1481 1482 1483 1483 1483 1483 1483 1484 1485 1487 1488 1488 1489 1490 1491 1492 1493 1495 1497 1498 1500 1501 1503 1504 1506 1507
1509 1510 1503 1489 1480 1479 1483 1488 1483 1483 1482 1482 1481 1481 1482 1483 1481 1480 1480 1481 1481 1481 1481 1481 1481 1481 1482 1483 1484 1485 1485 1486 1487 1488 1489 1490 1492 1493 1495 1497 1498 1499 1501 1502
1505 1507 1509 1493 1478 1474 1479 1492 1482 1481 1481 1482 1481 1485 1484 1481 1480 1479 1479 1479 1479 1479 1479 1479 1479 1479 1479 1480 1480 1480 1481 1482 1483 1484 1485 1486 1488 1489 1491 1492 1493 1494 1496 1497
1502 1503 1496 1483 1476 1474 1492 1492 1481 1479 1478 1478 1479 1480 1479 1478 1478 1478 1477 1476 1476 1476 1476 1476 1476 1477 1477 1477 1477 1478 1478 1479 1479 1480 1482 1483 1484 1485 1487 1488 1489 1489 1491 1492
1501 1503 1499 1479 1477 1482 1485 1480 1478 1477 1476 1476 1476 1476 1476 1475 1476 1476 1475 1475 1474 1474 1474 1474 1475 1475 1474 1474 1475 1476 1476 1476 1477 1477 1478 1479 1480 1481 1483 1484 1485 1485 1486 1489
1493 1492 1481 1477 1477 1478 1477 1477 1476 1476 1476 1475 1475 1475 1474 1473 1474 1474 1473 1472 1472 1472 1472 1472 1473 1473 1472 1472 1473 1473 1474 1474 1474 1475 1476 1477 1478 1478 1479 1481 1482 1483 1484 1485
1487 1482 1479 1477 1476 1476 1476 1475 1475 1474 1474 1474 1473 1473 1473 1472 1472 1472 1471 1471 1470 1470 1470 1469 1470 1470 1470 1470 1471 1471 1471 1471 1472 1472 1473 1475 1475 1476 1477 1478 1479 1480 1481 1482
1485 1481 1478 1476 1476 1475 1474 1473 1473 1472 1473 1473 1472 1472 1471 1471 1470 1470 1470 1469 1469 1468 1468 1468 1468 1467 1468 1468 1468 1469 1469 1470 1470 1470 1471 1472 1472 1473 1474 1475 1476 1477 1478 1480
1484 1479 1478 1476 1474 1473 1472 1471 1471 1471 1470 1471 1471 1470 1470 1470 1469 1469 1469 1468 1467 1467 1467 1466 1466 1466 1466 1466 1467 1467 1467 1468 1468 1468 1469 1469 1470 1471 1472 1473 1475 1476 1477 1478
1477 1476 1475 1473 1472 1471 1470 1470 1469 1469 1468 1468 1469 1469 1468 1468 1468 1468 1467 1467 1466 1466 1466 1465 1465 1464 1465 1465 1465 1465 1465 1466 1467 1467 1467 1468 1468 1469 1469 1471 1473 1474 1475 1476
1475 1474 1473 1472 1471 1470 1469 1468 1468 1468 1467 1467 1467 1467 1467 1466 1466 1466 1466 1465 1465 1465 1465 1464 1464 1463 1464 1464 1464 1464 1464 1465 1465 1466 1466 1467 1467 1468 1469 1469 1470 1471 1473 1474
1472 1471 1471 1470 1470 1469 1468 1466 1466 1466 1466 1466 1466 1465 1465 1464 1464 1464 1464 1464 1464 1464 1463 1463 1462 1462 1463 1463 1463 1463 1463 1463 1464 1464 1465 1465 1466 1467 1467 1468 1469 1469 1470 1471
1470 1469 1469 1468 1468 1467 1466 1465 1465 1465 1465 1464 1464 1464 1463 1463 1463 1463 1463 1463 1462 1462 1462 1461 1461 1461 1461 1461 1462 1462 1462 1462 1462 1463 1463 1464 1464 1465 1466 1466 1467 1467 1468 1469
1468 1467 1467 1467 1466 1466 1465 1464 1464 1463 1463 1463 1462 1462 1461 1461 1461 1461 1461 1461 1461 1461 1460 1460 1459 1459 1460 1460 1460 1460 1460 1460 1460 1461 1461 1462 1462 1463 1464 1464 1465 1465 1466 1468
1466 1466 1465 1465 1464 1464 1464 1463 1462 1461 1461 1461 1461 1460 1460 1459 1459 1459 1459 1459 1459 1459 1458 1458 1458 1458 1458 1458 1458 1458 1458 1458 1459 1459 1460 1460 1461 1462 1463 1463 1464 1464 1465 1466
1463 1463 1463 1463 1462 1462 1461 1461 1460 1459 1459 1459 1459 1458 1458 1458 1458 1458 1458 1458 1457 1456 1456 1456 1456 1457 1457 1457 1457 1457 1457 1457 1457 1457 1458 1459 1460 1460 1461 1462 1463 1463 1464 1464
1461 1461 1461 1461 1461 1460 1460 1459 1459 1458 1458 1458 1457 1457 1457 1457 1457 1456 1456 1456 1455 1455 1455 1455 1454 1454 1454 1454 1455 1455 1455 1455 1455 1456 1457 1457 1458 1459 1460 1460 1461 1462 1462 1462
1459 1459 1459 1459 1458 1458 1458 1458 1457 1457 1457 1457 1456 1456 1455 1455 1455 1455 1454 1454 1454 1454 1454 1453 1453 1452 1452 1452 1453 1453 1453 1454 1454 1455 1455 1456 1456 1457 1458 1458 1459 1460 1460 1460
1458 1458 1458 1458 1457 1457 1457 1457 1457 1456 1456 1456 1455 1455 1454 1454 1454 1453 1453 1453 1453 1453 1452 1452 1451 1451 1451 1451 1451 1451 1452 1452 1452 1453 1453 1454 1455 1455 1456 1456 1456 1457 1458 1458
1458 1458 1457 1457 1457 1457 1456 1456 1456 1456 1455 1455 1454 1454 1453 1453 1453 1452 1451 1452 1451 1451 1450 1450 1450 1450 1450 1450 1450 1450 1450 1450 1451 1451 1452 1452 1453 1453 1454 1454 1454 1454 1455 1455
1458 1458 1457 1457 1457 1456 1456 1456 1456 1455 1455 1454 1453 1453 1452 1452 1451 1451 1451 1450 1450 1449 1448 1448 1448 1448 1448 1448 1449 1449 1449 1449 1449 1449 1450 1450 1451 1451 1451 1451 1451 1452 1452 1452
1458 1457 1457 1457 1456 1455 1455 1455 1454 1454 1454 1453 1453 1452 1452 1451 1450 1449 1449 1448 1448 1447 1447 1446 1446 1446 1446 1446 1447 1447 1447 1447 1447 1447 1448 1448 1448 1448 1449 1449 1449 1450 1450 1450
1458 1457 1457 1456 1455 1455 1454 1454 1454 1453 1453 1452 1452 1451 1451 1450 1450 1449 1448 1447 1446 1445 1445 1445 1445 1445 1445 1445 1445 1445 1445 1445 1446 1446 1446 1446 1446 1446 1446 1446 1447 1447 1447 1448
1457 1457 1456 1455 1455 1454 1454 1453 1453 1452 1452 1451 1451 1450 1450 1449 1448 1447 1446 1446 1445 1444 1444 1443 1443 1443 1443 1443 1443 1443 1444 1444 1444 1444 1445 1445 1444 1444 1444 1445 1445 1445 1445 1445